| time (UTC) | temp C | wind direction | speed KPH | gust KPH | rain 1hr cm | rain 24hr cm | rain mn cm | humidity % | barometer mb |
| 20260505091517 | 7 | 219 | 20.9 | 46.7 | 0.00 | 0.41 | 0.00 | 82 | 1008.5 |
| 20260505090017 | 7 | 221 | 22.5 | 46.7 | 0.00 | 0.41 | 0.00 | 82 | 1008.5 |
| 20260505084517 | 7 | 240 | 37.0 | 53.1 | 0.00 | 0.41 | 0.00 | 82 | 1008.3 |
| 20260505083014 | 7 | 234 | 29.0 | 51.5 | 0.00 | 0.41 | 0.00 | 82 | 1008.0 |
| 20260505081511 | 7 | 259 | 32.2 | 51.5 | 0.00 | 0.41 | 0.00 | 82 | 1007.7 |
| 20260505080009 | 7 | 206 | 35.4 | 53.1 | 0.00 | 0.41 | 0.00 | 82 | 1007.4 |
| 20260505074505 | 7 | 231 | 27.4 | 53.1 | 0.00 | 0.51 | 0.00 | 81 | 1007.3 |
| 20260505073004 | 7 | 245 | 35.4 | 59.5 | 0.00 | 0.51 | 0.00 | 81 | 1006.9 |
| 20260505071600 | 7 | 195 | 11.3 | 37.0 | 0.00 | 0.51 | 0.00 | 80 | 1006.7 |
| 20260505070059 | 7 | 232 | 19.3 | 49.9 | 0.00 | 0.51 | 0.00 | 79 | 1006.3 |
| 20260505064600 | 7 | 257 | 22.5 | 56.3 | 0.00 | 0.58 | 0.00 | 79 | 1006.0 |
| 20260505063113 | 7 | 207 | 16.1 | 40.2 | 0.00 | 0.58 | 0.00 | 79 | 1005.8 |
| 20260505061556 | 7 | 234 | 24.1 | 46.7 | 0.00 | 0.58 | 0.00 | 78 | 1005.6 |
| 20260505060054 | 8 | 236 | 32.2 | 54.7 | 0.00 | 0.58 | 0.00 | 78 | 1005.2 |
| 20260505054558 | 8 | 219 | 35.4 | 54.7 | 0.00 | 0.58 | 0.00 | 79 | 1005.5 |
| 20260505053056 | 8 | 226 | 22.5 | 45.1 | 0.00 | 0.58 | 0.00 | 78 | 1005.3 |
| 20260505051546 | 8 | 222 | 29.0 | 72.4 | 0.00 | 0.58 | 0.00 | 79 | 1005.2 |
| 20260505041549 | 8 | 191 | 20.9 | 46.7 | 0.00 | 0.58 | 0.00 | 79 | 1004.3 |
| 20260505040040 | 9 | 217 | 24.1 | 56.3 | 0.00 | 0.58 | 0.00 | 79 | 1004.3 |
| 20260505034532 | 9 | 220 | 27.4 | 56.3 | 0.00 | 0.61 | 0.00 | 78 | 1004.0 |
| 20260505033028 | 9 | 225 | 29.0 | 57.9 | 0.00 | 0.61 | 0.00 | 76 | 1003.8 |
| 20260505031537 | 9 | 209 | 22.5 | 48.3 | 0.00 | 0.61 | 0.00 | 75 | 1003.7 |
| 20260505030023 | 10 | 180 | 24.1 | 61.2 | 0.00 | 0.61 | 0.00 | 74 | 1003.7 |
| 20260505024521 | 10 | 257 | 22.5 | 51.5 | 0.00 | 0.81 | 0.61 | 71 | 1003.5 |
| 20260505023020 | 10 | 228 | 27.4 | 43.5 | 0.00 | 0.81 | 0.61 | 69 | 1003.3 |
| 20260505021520 | 10 | 249 | 27.4 | 46.7 | 0.00 | 0.81 | 0.61 | 67 | 1003.4 |
| 20260505020018 | 10 | 238 | 27.4 | 38.6 | 0.00 | 0.81 | 0.61 | 66 | 1003.0 |
| 20260505014517 | 10 | 203 | 12.9 | 35.4 | 0.00 | 1.30 | 0.61 | 64 | 1002.8 |
| 20260505013015 | 10 | 220 | 12.9 | 40.2 | 0.00 | 1.30 | 0.61 | 62 | 1002.7 |
| 20260505011513 | 10 | 178 | 16.1 | 37.0 | 0.00 | 1.30 | 0.61 | 62 | 1002.5 |
| 20260505010012 | 10 | 203 | 12.9 | 30.6 | 0.00 | 1.30 | 0.61 | 62 | 1002.2 |
| 20260505004510 | 10 | 172 | 17.7 | 45.1 | 0.00 | 1.83 | 0.61 | 63 | 1001.8 |
| 20260505003009 | 9 | 153 | 12.9 | 32.2 | 0.00 | 1.83 | 0.61 | 60 | 1001.8 |
| 20260505001508 | 9 | 176 | 14.5 | 35.4 | 0.00 | 1.83 | 0.61 | 61 | 1001.5 |
| 20260505000010 | 10 | 150 | 9.7 | 24.1 | 0.00 | 1.83 | 0.61 | 60 | 1001.3 |
| 20260504234508 | 10 | 230 | 16.1 | 30.6 | 0.00 | 2.24 | 0.61 | 60 | 1001.0 |
| 20260504233003 | 9 | 245 | 17.7 | 29.0 | 0.00 | 2.24 | 0.61 | 62 | 1000.7 |
| 20260504231501 | 9 | 219 | 25.7 | 38.6 | 0.00 | 2.24 | 0.61 | 64 | 1000.7 |
| 20260504230100 | 9 | 254 | 14.5 | 33.8 | 0.00 | 2.24 | 0.61 | 63 | 1000.6 |
| 20260504224609 | 9 | 256 | 29.0 | 49.9 | 0.00 | 2.82 | 0.61 | 63 | 1000.7 |
| 20260504223131 | 10 | 267 | 27.4 | 41.8 | 0.00 | 2.82 | 0.61 | 62 | 1000.6 |
| 20260504221557 | 10 | 253 | 35.4 | 61.2 | 0.00 | 2.82 | 0.61 | 62 | 1000.3 |
| 20260504220056 | 10 | 249 | 27.4 | 53.1 | 0.00 | 2.82 | 0.61 | 64 | 1000.3 |
| 20260504214554 | 9 | 234 | 33.8 | 61.2 | 0.00 | 3.02 | 0.61 | 64 | 1000.0 |
| 20260504213101 | 9 | 266 | 29.0 | 48.3 | 0.00 | 3.02 | 0.61 | 65 | 1000.0 |
| 20260504211550 | 9 | 194 | 16.1 | 54.7 | 0.00 | 3.02 | 0.61 | 66 | 999.8 |
| 20260504210049 | 9 | 258 | 27.4 | 45.1 | 0.00 | 3.02 | 0.61 | 67 | 999.5 |
| 20260504204548 | 8 | 228 | 29.0 | 51.5 | 0.00 | 3.25 | 0.61 | 68 | 999.2 |
| 20260504203022 | 8 | 263 | 29.0 | 51.5 | 0.00 | 3.25 | 0.61 | 69 | 999.1 |
| 20260504201515 | 8 | 238 | 35.4 | 64.4 | 0.00 | 3.25 | 0.61 | 71 | 998.9 |
| 20260504200014 | 8 | 273 | 37.0 | 70.8 | 0.00 | 3.25 | 0.61 | 73 | 998.3 |
| 20260504194511 | 8 | 226 | 24.1 | 59.5 | 0.00 | 3.25 | 0.61 | 76 | 998.1 |
| 20260504193008 | 7 | 259 | 27.4 | 66.0 | 0.00 | 3.25 | 0.61 | 78 | 997.6 |
| 20260504191506 | 7 | 272 | 37.0 | 59.5 | 0.00 | 3.25 | 0.61 | 77 | 997.2 |
| 20260504190004 | 8 | 238 | 40.2 | 70.8 | 0.00 | 3.25 | 0.61 | 78 | 996.6 |
| 20260504184502 | 7 | 240 | 46.7 | 74.0 | 0.00 | 3.25 | 0.61 | 79 | 995.8 |
| 20260504183059 | 7 | 270 | 56.3 | 85.3 | 0.00 | 3.25 | 0.61 | 80 | 996.0 |
| 20260504181600 | 6 | 257 | 48.3 | 93.3 | 0.00 | 3.25 | 0.61 | 84 | 995.8 |
| 20260504180055 | 6 | 254 | 43.5 | 70.8 | 0.00 | 3.25 | 0.61 | 87 | 996.0 |
| 20260504174557 | 5 | 249 | 41.8 | 72.4 | 0.00 | 3.25 | 0.61 | 88 | 996.1 |
| 20260504173050 | 5 | 278 | 41.8 | 70.8 | 0.03 | 3.25 | 0.61 | 89 | 995.5 |
| 20260504171549 | 5 | 259 | 35.4 | 62.8 | 0.05 | 3.25 | 0.61 | 91 | 995.3 |